User: anonymous   Login
Location: Unspecified
(0.0000°N, 0.0000°E)
Time: 02:16:30
(UTC+00:00)
Language:

ATEX - Orbit

View from above orbital plane
View from above orbital plane
View from above satellite
View from above satellite

Ground track
Ground track

The orbit data is extracted from the following two-line orbital elements,

1 25615U 98055C   23088.21655558  .00000763  00000-0  21057-3 0  9998
2 25615  84.9895 345.1840 0009976  87.8394 272.3948 14.45531972204045
Epoch (UTC): 29 March 2023 05:11:50
Eccentricity: 0.0009976
inclination: 84.9895°
perigee height: 733 km
apogee height: 747 km
right ascension of ascending node: 345.1840°
argument of perigee: 87.8394°
revolutions per day: 14.45531972
mean anomaly at epoch: 272.3948°
orbit number at epoch: 20404

The dashed part of the orbit path shows where the satellite is in the earth's shadow,  

DLR